Regional Weather Roundup
Issued by NWS Kansas City/Pleasant Hill, MO

Home | Current Version | Previous Version | Text Only | Print | Product List | Glossary On
Versions: 1 2 3 4 5 6 7 8 9 10 11 12 13 14 15 16 17 18 19 20 21 22 23 24 25 26 27 28 29 30 31 32 33 34 35 36 37 38 39 40 41 42 43 44 45 46 47 48 49 50
402
ASUS43 KEAX 271910
RWREAX

WEATHER ROUNDUP FOR EASTERN KANSAS AND NORTHWEST MISSOURI
NATIONAL WEATHER SERVICE KANSAS CITY/PLEASANT HILL MO
200 PM CDT WED JUL 27 2016

KSZ040-057-103>105-MOZ028-029-037-043-272000-
...KANSAS CITY METROPOLITAN AREA...

CITY           SKY/WX    TMP DP  RH WIND       PRES   REMARKS
K.C. INTL      CLOUDY    87  70  56 VRB5      29.99F HX  92
K.C. DOWNTOWN  SUNNY     90  66  45 S3        29.96F HX  92
LEES SUMMIT    MOSUNNY   88  68  51 VRB3      29.99F HX  91
OLATHE - IXD   SUNNY     89  64  43 CALM      29.99F HX  90
OLATHE - OJC   SUNNY     89  65  44 E6        29.98F HX  91
LAWRENCE       MOSUNNY   92  66  42 VRB5      29.98F HX  94

$$

MOZ001>008-011>017-020>025-030>033-038>040-044>046-053-054-272000-
...NORTHERN AND CENTRAL MISSOURI...

CITY           SKY/WX    TMP DP  RH WIND       PRES   REMARKS
ST. JOSEPH     CLOUDY    86  69  56 CALM      29.98F HX  90
MOSBY          PTCLDY    88  66  48 CALM      29.98F HX  90
WHITEMAN AFB   PTSUNNY   88  74  63 S1        29.97R HX  95
CLINTON        MOSUNNY   88  75  66 CALM      29.97F HX  97
SEDALIA        MOSUNNY   90  74  59 VRB5      29.98F HX  99
WARSAW         NOT AVBL
CHILLICOTHE      N/A     89  68  49 VRB5      29.98F HX  93
KIRKSVILLE     PTSUNNY   89  68  49 SE3       29.99F HX  93

$$

MOZ041-047>049-056>058-063>065-088>090-097-272000-
...EASTERN AND SOUTHERN MISSOURI...

CITY           SKY/WX    TMP DP  RH WIND       PRES   REMARKS
ST. LOUIS INTL MOSUNNY   89  71  55 CALM      29.96F HX  95
SPIRIT OF STL  PTSUNNY   90  72  55 VRB3      29.94F HX  97
COLUMBIA       MOSUNNY   89  75  63 S3        29.97F HX  99
JEFFERSON CITY MOSUNNY   88  74  63 E5        29.95F HX  96
ROLLA          PTSUNNY   85  73  67 VRB3      29.98F HX  91
OSAGE BEACH    LGT RAIN  82  78  88 NE3       29.99F HX  91
SPRINGFIELD    CLOUDY    80  73  79 SE3       30.00S
BRANSON        PTSUNNY   88  73  62 CALM      30.00F HX  96
JOPLIN         PTSUNNY   87  75  67 VRB5      29.97F HX  96
WEST PLAINS    CLOUDY    87  70  56 SE7       30.00F HX  92

$$

IAZ060-094-KSZ022-034>040-054-083-096-NEZ052-066-093-272000-
...KANSAS...SOUTHEAST NEBRASKA AND IOWA...

CITY           SKY/WX    TMP DP  RH WIND       PRES   REMARKS
TOPEKA         MOSUNNY   89  68  49 NE7       29.98F HX  93
MANHATTAN      CLOUDY    87  73  62 N5        29.99F HX  94
EMPORIA        SUNNY     88  70  55 SE3       29.99F HX  93
CHANUTE        PTSUNNY   90  74  59 MISG      29.97F HX  99
WICHITA        MOSUNNY   92  72  51 VRB5      29.99F HX  99
OMAHA          MOSUNNY   88  67  49 N10       29.97F HX  91
LINCOLN        MOSUNNY   87  65  47 NW13      30.00S
FALLS CITY     MOSUNNY   86  72  62 W7        29.98F HX  92
LAMONI         MOSUNNY   83  69  62 SW5       29.99F
DES MOINES     PTSUNNY   85  68  56 VRB6      29.97F

$$





USA.gov is the U.S. government's official web portal to all federal, state and local government web resources and services.